Hourly Weather Bolshie Ivanischi

Today, 17 June, Thursday

Time Temperature Precipitation Wind Pressure Humidity
00:00 +13°C° 0 mm 2 mps 753 mmHg 72%
01:00 +13°C° 0 mm 2 mps 753 mmHg 72%
02:00 +12°C° 0 mm 2 mps 754 mmHg 71%
03:00 +12°C° 0 mm 2 mps 754 mmHg 71%
04:00 +12°C° 0 mm 2 mps 754 mmHg 71%
05:00 +13°C° 0 mm 2 mps 755 mmHg 70%
06:00 +13°C° 0 mm 1 mps 755 mmHg 70%
07:00 +15°C° 0 mm 1 mps 756 mmHg 62%
08:00 +17°C° 0 mm 2 mps 756 mmHg 55%
09:00 +19°C° 0 mm 2 mps 756 mmHg 47%
10:00 +20°C° 0 mm 2 mps 756 mmHg 45%
11:00 +21°C° 0 mm 2 mps 757 mmHg 44%
12:00 +23°C° 0 mm 2 mps 757 mmHg 42%
13:00 +23°C° 0 mm 2 mps 757 mmHg 42%
14:00 +24°C° 0 mm 2 mps 757 mmHg 43%
15:00 +24°C° 0 mm 2 mps 757 mmHg 43%
16:00 +24°C° 0 mm 2 mps 757 mmHg 45%
17:00 +24°C° 0 mm 1 mps 757 mmHg 48%
18:00 +24°C° 0 mm 1 mps 757 mmHg 50%
19:00 +22°C° 0 mm 1 mps 757 mmHg 57%
20:00 +19°C° 0 mm 2 mps 757 mmHg 65%
21:00 +17°C° 0 mm 2 mps 757 mmHg 72%
22:00 +16°C° 0 mm 2 mps 757 mmHg 74%
23:00 +16°C° 0 mm 2 mps 757 mmHg 75%

Tomorrow, 18 June, Friday

Time Temperature Precipitation Wind Pressure Humidity
00:00 +15°C° 0 mm 2 mps 757 mmHg 77%
01:00 +15°C° 0 mm 1 mps 758 mmHg 78%
02:00 +14°C° 0 mm 1 mps 758 mmHg 79%
03:00 +14°C° 0 mm 1 mps 758 mmHg 80%
04:00 +15°C° 0 mm 1 mps 758 mmHg 78%
05:00 +15°C° 0 mm 1 mps 758 mmHg 77%
06:00 +16°C° 0 mm 1 mps 759 mmHg 75%
07:00 +19°C° 0 mm 1 mps 759 mmHg 70%
08:00 +20°C° 0 mm 2 mps 759 mmHg 64%
09:00 +23°C° 0 mm 2 mps 759 mmHg 58%
10:00 +24°C° 0 mm 2 mps 759 mmHg 54%
11:00 +25°C° 0 mm 2 mps 758 mmHg 49%
12:00 +26°C° 0 mm 2 mps 758 mmHg 45%
13:00 +27°C° 0 mm 3 mps 758 mmHg 44%
14:00 +27°C° 0 mm 3 mps 758 mmHg 43%
15:00 +28°C° 0 mm 3 mps 757 mmHg 42%
16:00 +28°C° 0 mm 3 mps 757 mmHg 46%
17:00 +27°C° 0 mm 3 mps 757 mmHg 51%
18:00 +27°C° 0 mm 3 mps 757 mmHg 55%
19:00 +25°C° 0 mm 3 mps 757 mmHg 61%
20:00 +22°C° 0 mm 3 mps 757 mmHg 68%
21:00 +20°C° 0 mm 3 mps 757 mmHg 74%
22:00 +19°C° 0 mm 3 mps 757 mmHg 76%
23:00 +18°C° 0 mm 3 mps 757 mmHg 79%

Day after tomorrow, 19 June, Saturday

Time Temperature Precipitation Wind Pressure Humidity
00:00 +17°C° 0 mm 3 mps 757 mmHg 81%
01:00 +17°C° 0 mm 3 mps 757 mmHg 84%
02:00 +16°C° 0 mm 3 mps 757 mmHg 86%
03:00 +16°C° 0 mm 3 mps 757 mmHg 89%
04:00 +17°C° 0 mm 3 mps 757 mmHg 86%
05:00 +17°C° 0 mm 3 mps 757 mmHg 84%
06:00 +18°C° 0 mm 3 mps 757 mmHg 81%
07:00 +20°C° 0 mm 3 mps 757 mmHg 76%
08:00 +22°C° 0 mm 3 mps 757 mmHg 70%
09:00 +24°C° 0 mm 3 mps 757 mmHg 64%
10:00 +26°C° 0 mm 4 mps 757 mmHg 60%
11:00 +27°C° 0 mm 4 mps 757 mmHg 56%
12:00 +28°C° 0 mm 4 mps 757 mmHg 52%
13:00 +29°C° 0 mm 4 mps 757 mmHg 50%
14:00 +29°C° 0 mm 4 mps 756 mmHg 49%
15:00 +29°C° 0 mm 4 mps 756 mmHg 47%
16:00 +29°C° 0 mm 3 mps 756 mmHg 50%
17:00 +29°C° 0 mm 3 mps 756 mmHg 53%
18:00 +28°C° 0 mm 3 mps 755 mmHg 57%
19:00 +26°C° 0 mm 3 mps 755 mmHg 63%
20:00 +24°C° 0 mm 3 mps 755 mmHg 70%
21:00 +21°C° 0 mm 3 mps 755 mmHg 76%
22:00 +20°C° 0 mm 3 mps 756 mmHg 78%
23:00 +19°C° 0 mm 2 mps 756 mmHg 80%

20 June, Sunday

Time Temperature Precipitation Wind Pressure Humidity
00:00 +18°C° 0 mm 2 mps 756 mmHg 82%
01:00 +18°C° 0 mm 2 mps 756 mmHg 85%
02:00 +17°C° 0 mm 2 mps 756 mmHg 88%
03:00 +17°C° 0 mm 2 mps 756 mmHg 91%
04:00 +17°C° 0 mm 2 mps 756 mmHg 88%
05:00 +18°C° 0 mm 2 mps 756 mmHg 85%
06:00 +19°C° 0 mm 2 mps 756 mmHg 82%
07:00 +20°C° 0 mm 2 mps 756 mmHg 75%
08:00 +22°C° 0 mm 3 mps 756 mmHg 69%
09:00 +25°C° 0 mm 3 mps 756 mmHg 62%
10:00 +26°C° 0 mm 3 mps 756 mmHg 57%
11:00 +27°C° 0 mm 3 mps 756 mmHg 52%
12:00 +28°C° 0 mm 3 mps 756 mmHg 48%
13:00 +29°C° 0 mm 3 mps 755 mmHg 45%
14:00 +29°C° 0 mm 3 mps 755 mmHg 43%
15:00 +30°C° 0 mm 3 mps 755 mmHg 41%
16:00 +29°C° 0 mm 3 mps 754 mmHg 45%
17:00 +29°C° 0 mm 3 mps 754 mmHg 49%
18:00 +29°C° 0 mm 2 mps 754 mmHg 53%
19:00 +27°C° 0 mm 2 mps 754 mmHg 60%
20:00 +25°C° 0 mm 2 mps 754 mmHg 67%
21:00 +23°C° 0 mm 2 mps 754 mmHg 74%
22:00 +21°C° 0 mm 2 mps 754 mmHg 77%
23:00 +20°C° 0 mm 2 mps 754 mmHg 79%

21 June, Monday

Time Temperature Precipitation Wind Pressure Humidity
00:00 +19°C° 0 mm 2 mps 754 mmHg 81%
01:00 +19°C° 0 mm 2 mps 754 mmHg 84%
02:00 +19°C° 0 mm 2 mps 754 mmHg 87%
03:00 +18°C° 0 mm 2 mps 754 mmHg 89%
04:00 +19°C° 0 mm 2 mps 754 mmHg 88%
05:00 +20°C° 0 mm 2 mps 754 mmHg 87%
06:00 +21°C° 0 mm 2 mps 754 mmHg 86%
07:00 +24°C° 0 mm 2 mps 754 mmHg 79%
08:00 +25°C° 0 mm 2 mps 754 mmHg 73%
09:00 +27°C° 0 mm 2 mps 754 mmHg 67%
10:00 +28°C° 0.3 mm 2 mps 754 mmHg 63%
11:00 +29°C° 0.3 mm 2 mps 754 mmHg 59%
12:00 +30°C° 0.3 mm 3 mps 754 mmHg 56%
13:00 +31°C° 0 mm 3 mps 754 mmHg 53%
14:00 +31°C° 0 mm 3 mps 754 mmHg 49%
15:00 +33°C° 0 mm 3 mps 753 mmHg 46%
16:00 +31°C° 0 mm 2 mps 753 mmHg 50%
17:00 +31°C° 0 mm 2 mps 753 mmHg 54%
18:00 +30°C° 0 mm 2 mps 753 mmHg 58%
19:00 +29°C° 0 mm 2 mps 753 mmHg 64%
20:00 +27°C° 0 mm 1 mps 753 mmHg 70%
21:00 +25°C° 0 mm 1 mps 753 mmHg 75%
22:00 +25°C° 0.2 mm 1 mps 753 mmHg 78%
23:00 +24°C° 0.2 mm 1 mps 753 mmHg 80%

22 June, Tuesday

Time Temperature Precipitation Wind Pressure Humidity
00:00 +23°C° 0.2 mm 1 mps 754 mmHg 82%
01:00 +23°C° 0.4 mm 1 mps 754 mmHg 85%
02:00 +22°C° 0.4 mm 1 mps 754 mmHg 87%
03:00 +21°C° 0.4 mm 1 mps 754 mmHg 90%
04:00 +22°C° 0.1 mm 1 mps 754 mmHg 89%
05:00 +23°C° 0.1 mm 1 mps 754 mmHg 88%
06:00 +23°C° 0.1 mm 1 mps 754 mmHg 88%
07:00 +25°C° 0 mm 1 mps 755 mmHg 80%
08:00 +27°C° 0 mm 1 mps 755 mmHg 72%
09:00 +28°C° 0 mm 1 mps 755 mmHg 65%
10:00 +30°C° 0 mm 1 mps 755 mmHg 60%
11:00 +31°C° 0 mm 1 mps 755 mmHg 55%
12:00 +32°C° 0 mm 1 mps 755 mmHg 50%
13:00 +32°C° 0 mm 1 mps 755 mmHg 49%
14:00 +33°C° 0 mm 1 mps 754 mmHg 47%
15:00 +33°C° 0 mm 1 mps 754 mmHg 45%
16:00 +30°C° 0.7 mm 2 mps 754 mmHg 57%
17:00 +28°C° 0.7 mm 3 mps 755 mmHg 68%
18:00 +25°C° 0.7 mm 4 mps 755 mmHg 79%
19:00 +25°C° 0.3 mm 3 mps 754 mmHg 77%
20:00 +24°C° 0.3 mm 2 mps 754 mmHg 76%
21:00 +24°C° 0.3 mm 1 mps 754 mmHg 74%
22:00 +23°C° 0 mm 1 mps 754 mmHg 76%
23:00 +22°C° 0 mm 1 mps 755 mmHg 77%
Show more